アトラス彗星

C/2020 Y2 ( ATLAS )

English version
Home page
Updated on August 17, 2023

---------------------------------------------------------------------

・ プロフィール

発見日 2020年12月28日
発見光度 18.3等
発見者 Asteroid Terrestrial-Impact Last Alert System (ATLAS) search program

・ 写真集

・ 軌道要素

Epoch 2023 Feb. 25.0 TT = JDT 2460000.5
T 2022 June 17.77226 TT                                 Rudenko
q   3.1328828            (2000.0)            P               Q
z  +0.0009356      Peri.  266.12557     -0.14772753     +0.88687004
 +/-0.0000003      Node    26.51403     +0.52198479     +0.44586906
e   0.9970687      Incl.  101.29874     -0.84006455     +0.12108801
>From 1125 observations 2020 Mar. 25-2023 Feb. 22, mean residual 0".4.

・ 星図

・ 光度変化

        m1 = 0.0 + 5 logΔ + 18.0 log r          [    ,-500]  (              〜2021年 2月 2日)
        m1 = 8.0 + 5 logΔ +  7.5 log r(t + 60)  [-500,    ]  (2021年 2月 2日〜              )

---------------------------------------------------------------------

軌道要素はM.P.E.C. 2023-D72に掲載されたものです。
星図はステラナビゲータ Ver.10 (アストロアーツ) で作成したものです。
光度グラフはComet for Windowsで作成したものです。

---------------------------------------------------------------------

Copyright(C) Seiichi Yoshida (comet@aerith.net). All rights reserved.